Regional Weather Roundup
Issued by NWS Midland/Odessa, TX

Skip options and go directly to product.
Home | Oldest Version | Previous Version | Current Version | All | Text Only | Save Text | Print | Product List | Glossary Off

Skip product version selection by date and time.   

016
ASUS44 KMAF 051810
RWRMAF
MIDLAND AREA WEATHER ROUNDUP
NATIONAL WEATHER SERVICE MIDLAND TX
1200 PM CST MON DEC 05 2016

...IN SOUTHWEST TEXAS AND SOUTHEAST NEW MEXICO...

CITY           SKY/WX    TMP DP  RH WIND       PRES   REMARKS
ALPINE         SUNNY     53  37  53 W14       29.94F
ANDREWS        FAIR      54  38  56 SW10      29.82F
ARTESIA        SUNNY     45  39  81 SE6       29.81F
BIG SPRING     PTSUNNY   53  43  68 S8        29.86
CARLSBAD       SUNNY     45  39  79 S5        29.81F
DRYDEN           N/A    N/A N/A N/A MISG      29.87F
FORT STOCKTON  SUNNY     55  47  74 SW7       29.85F
GUAD PASS      SUNNY     45  33  63 SW31      29.89F WCI  35
HOBBS          SUNNY     50  36  57 SW12      29.82F
MARFA          SUNNY     51  35  54 W17       29.93F
MIDLAND AIRPK  SUNNY     54  39  58 S9        29.84F
MIDLAND INTL   SUNNY     53  38  56 S8        29.83F
ODESSA         SUNNY     54  38  54 SW9       29.83F
PECOS          SUNNY     58  38  47 SW16      29.84F
PRESIDIO       MOCLDY    53  44  71 S7        29.95F
SEMINOLE       SUNNY     54  35  48 W13       29.81F
SNYDER         CLOUDY    49  40  73 SW10      29.84F
WINK           SUNNY     52  40  63 SW9       29.82F
$$
...OTHER STATIONS IN TEXAS...

CITY           SKY/WX    TMP DP  RH WIND       PRES   REMARKS
ABILENE        LGT RAIN  44  43  96 S7        29.85F FOG
AMARILLO       SUNNY     55  29  36 S20       29.67F
AUSTIN         CLOUDY    51  48  89 NW8       29.85F
BROWNSVILLE    CLOUDY    60  53  77 NW14      29.89F
CORPUS CHRISTI PTSUNNY   57  52  83 NW13      29.87F
DALLAS FTW     CLOUDY    52  44  74 N3        29.84F
DEL RIO        CLOUDY    54  48  80 W10       29.89F
EL PASO        MOSUNNY   53  28  38 SW17      29.92F
HOUSTON INT    LGT RAIN  53  51  93 CALM      29.78F
LUBBOCK        MOSUNNY   54  32  43 SW16      29.76F
SAN ANGELO     LGT RAIN  47  44  90 S8        29.86F
SAN ANTONIO    LGT RAIN  52  49  89 N7        29.86F FOG
WACO           LGT RAIN  50  48  93 N8        29.84F FOG
WICHITA FALLS  NOT AVBL
$$
...OTHER LOCATIONS IN NEW MEXICO...

CITY           SKY/WX    TMP DP  RH WIND       PRES   REMARKS
ALAMAGORDO     NOT AVBL
ALBUQUERQUE    PTSUNNY   41  17  38 SW8       29.90F WCI  36
CANNON AFB     SUNNY     54  24  31 W24       29.70F
CLOVIS         SUNNY     57  27  30 W20G26    29.70F
HOLLOMAN AFB   SUNNY     46  31  54 S6        29.95F
ROSWELL        SUNNY     42  31  64 CALM      29.79F
RUIDOSO        SUNNY     50  14  23 NW15G23   29.89F
SANTA FE       SUNNY     45  16  31 N3        29.85F
TRUTH OR CONSE SUNNY     46  22  38 S7        29.89F
TUCUMCARI      SUNNY     60  18  19 W25       29.65F
$$

  • National Weather Service
  • Southern Region Headquarters
  • 819 Taylor Street, Room 10A06
  • Fort Worth, TX 76102
  • Page Author: NWS Fort Worth
  • Web Master: SR-SRH.Webmaster@noaa.gov
  •  
  • Page last modified: 30-Sep-2016 6:36 PM UTC
USA.gov is the U.S. government's official web portal to all federal, state and local government web resources and services.